Wyoming Mesonet
Water Resources Data System and State Climate Office


SEO WACNet, UW USACE UMRB, USDA-ARS, BLM

Diversion Dam (DDMW4)

Stake (Looking West)
Tower (Looking West)

Air Temperatures (F)
Precipitation (inches)

Snow Depth (in)
Frost Depth

Wind Speed (mph)
Wind Direction (Degrees)

Humidity (%)
Solar Radiation (watts per square meter)

Soil Moisture
Soil Moisture

Soil Temperature
Soil Temperature

Sea-Level Pressure (in Hg)
Bare Soil Temperature with Soil and Air

Wind Soil
Temp Precip Speed Dir Gust Dir Humidity Pressure Solar Snow Temperature (Deg F) Moisture (%)
Date Time (MST) (F) (in) (mph) (deg) (mph) (deg) (%) (Mbars) (w/m^2) (in) 5cm 10cm 20cm 50cm 1m 5cm 10cm 20cm 50cm 1m
2026-08-30 00:00:00 57.06 0.00 14.36 291 30.80 302 72.5 826.0 0.0 -0.0 61.34 69.26 71.78 72.50 69.44 3.1% 8.9% 10.6% 11.7% 11.3%
2026-08-30 01:00:00 57.29 0.00 8.06 268 15.78 252 73.8 826.0 0.0 -0.0 61.16 68.54 71.42 72.50 69.26 3.1% 8.7% 10.6% 11.7% 11.3%
2026-08-30 02:00:00 56.21 0.00 15.83 288 19.01 295 74.1 826.0 0.0 -0.1 60.62 68.00 70.88 72.50 69.26 3.1% 8.7% 10.6% 11.7% 11.3%
2026-08-30 03:00:00 57.43 0.00 7.50 282 28.70 262 68.7 826.0 0.0 -0.1 59.90 67.46 70.52 72.50 69.26 3.1% 8.4% 10.6% 11.7% 11.4%
2026-08-30 04:00:00 56.39 0.00 11.20 252 14.53 269 69.5 825.0 0.0 -0.1 59.54 66.92 70.34 72.32 69.26 3.1% 8.4% 10.6% 11.7% 11.3%
2026-08-30 05:00:00 53.80 0.00 2.88 51 12.80 253 77.4 825.0 0.0 -0.1 58.64 66.38 69.80 72.32 69.26 3.1% 8.0% 10.6% 11.6% 11.3%
2026-08-30 06:00:00 51.98 0.00 3.28 189 5.34 320 85.9 826.0 12.6 -0.1 57.56 66.02 69.44 72.32 69.26 3.1% 8.1% 10.6% 11.6% 11.3%
2026-08-30 07:00:00 56.25 0.00 0.94 128 7.58 202 74.2 826.0 272.9 0.0 56.48 65.30 69.26 72.32 69.26 3.1% 7.9% 10.6% 11.7% 11.3%
2026-08-30 08:00:00 60.22 0.00 4.76 244 8.94 244 60.0 827.0 41.6 0.0 58.64 64.58 68.90 72.14 69.26 3.2% 7.9% 10.5% 11.7% 11.4%
2026-08-30 09:00:00 61.48 0.00 6.14 288 26.33 189 55.4 826.0 133.8 -0.0 59.36 64.40 68.36 72.14 69.26 3.2% 7.8% 10.6% 11.6% 11.3%
2026-08-30 10:00:00 60.31 0.00 18.37 275 30.56 247 56.2 827.0 67.8 -0.1 60.62 64.40 68.18 71.96 69.26 3.3% 7.8% 10.5% 11.7% 11.3%
2026-08-30 11:00:00 62.73 0.00 13.34 228 30.18 231 46.1 827.0 143.7 -0.1 61.34 64.58 68.00 71.96 69.26 3.3% 7.8% 10.5% 11.6% 11.4%
2026-08-30 12:00:00 72.39 0.00 4.42 232 32.30 210 30.5 826.0 929.0 0.1 66.20 64.76 67.82 71.78 69.26 3.6% 7.7% 10.5% 11.6% 11.3%
2026-08-30 13:00:00 76.24 0.00 4.41 318 15.90 298 24.5 826.0 230.0 0.1 75.92 65.66 67.82 71.78 69.08 4.0% 7.9% 10.5% 11.7% 11.4%
2026-08-30 14:00:00 75.81 0.00 15.69 247 32.17 234 24.4 826.0 544.6 0.1 80.42 67.82 68.00 71.60 69.26 4.3% 8.5% 10.5% 11.6% 11.3%
2026-08-30 15:00:00 77.70 0.00 5.96 272 21.00 249 21.0 825.0 701.0 0.0 83.48 70.16 68.54 71.60 69.26 4.5% 8.9% 10.5% 11.6% 11.3%
2026-08-30 16:00:00 76.80 0.00 9.89 222 17.76 249 20.0 825.0 587.6 -0.0 85.10 72.32 69.44 71.42 69.08 4.6% 9.4% 10.5% 11.6% 11.3%
2026-08-30 17:00:00 76.42 0.00 9.86 242 22.48 317 18.6 826.0 340.4 -0.0 82.76 74.12 70.34 71.60 69.26 4.4% 9.8% 10.7% 11.6% 11.4%
2026-08-30 18:00:00 73.99 0.00 8.94 250 15.53 240 20.3 826.0 152.7 -0.2 79.70 75.02 71.06 71.42 69.26 4.3% 9.8% 10.6% 11.6% 11.3%
2026-08-30 19:00:00 65.86 0.00 7.38 268 12.42 263 24.4 826.0 1.4 -0.4 75.56 75.38 71.60 71.42 69.26 4.1% 9.9% 10.6% 11.6% 11.3%
2026-08-30 20:00:00 60.33 0.00 6.36 283 10.44 303 32.0 827.0 0.0 -0.4 71.60 74.84 72.14 71.24 69.08 4.0% 9.7% 10.6% 11.6% 11.3%
2026-08-30 21:00:00 55.33 0.00 5.95 302 11.05 316 38.7 827.0 0.0 -0.4 68.36 73.94 72.14 71.06 69.08 3.9% 9.5% 10.6% 11.6% 11.3%
2026-08-30 22:00:00 58.55 0.00 11.01 290 14.66 309 29.4 828.0 0.0 -0.3 65.48 72.86 71.96 71.06 69.26 3.8% 9.3% 10.6% 11.6% 11.3%
2026-08-30 23:00:00 56.35 0.00 12.94 271 16.90 317 35.1 828.0 0.0 -0.3 63.32 71.42 71.78 71.06 69.08 3.7% 9.1% 10.6% 11.5% 11.3%
Tony Bergantino for availability of additional data